Regional Weather Roundup
Issued by NWS Burlington, VT

Home | Current Version | Previous Version | Text Only | Print | Product List | Glossary On
Versions: 1 2 3 4 5 6 7 8 9 10 11 12 13 14 15 16 17 18 19 20 21 22 23 24 25 26 27 28 29 30 31 32 33 34 35 36 37 38 39 40 41 42 43 44 45 46 47 48 49 50
000
ASUS41 KBTV 181830
RWRBTV
VERMONT REGIONAL WEATHER ROUNDUP
NATIONAL WEATHER SERVICE BURLINGTON VT
100 PM EST WED JAN 18 2017

NOTE: "FAIR" INDICATES FEW OR NO CLOUDS BELOW 12,000 FEET WITH NO
SIGNIFICANT WEATHER AND/OR OBSTRUCTIONS TO VISIBILITY.

* THESE REPORTS ARE NOT UNDER NWS QUALITY CONTROL AND/OR DO NOT
  REPORT WEATHER SUCH AS PRECIPITATION AND FOG.

VTZ001>019-181900-
_____VERMONT_____


CITY           SKY/WX    TMP DP  RH WIND       PRES   REMARKS
BURLINGTON     CLOUDY    37  31  78 S10       29.92F WCI  30
6HR MIN TEMP:  34; 6HR MAX TEMP:  37; 6HR PCP: TRACE;

MONTPELIER     CLOUDY    31  28  89 SW6       29.99R FOG     WCI  25
6HR MIN TEMP:  29; 6HR MAX TEMP:  31; 6HR PCP:  0.01;

MORRISVILLE    CLOUDY    32  28  85 S6        29.96F WCI  26
6HR MIN TEMP:  30; 6HR MAX TEMP:  32; 6HR PCP: TRACE;

ST. JOHNSBURY*   N/A     32  29  88 MISG      29.97R
6HR MIN TEMP:  29; 6HR MAX TEMP:  32; 6HR PCP:  0.02;

LYNDONVILLE*   LGT RAIN  30  28  90 SE6       29.96F WCI  24
6HR MIN TEMP:  28; 6HR MAX TEMP:  30;

MIDDLEBURY*    LGT SNOW  35  24  64 S6        29.93F WCI  30
6HR MIN TEMP:  34; 6HR MAX TEMP:  37;

RUTLAND*       CLOUDY    35  28  75 S9        29.94S WCI  28
6HR MIN TEMP:  33; 6HR MAX TEMP:  35; 6HR PCP: TRACE;

SPRINGFIELD    LGT SNOW  33  28  81 NE3       29.98S
6HR MIN TEMP:  30; 6HR MAX TEMP:  33; 6HR PCP: TRACE;

HIGHGATE*      CLOUDY    37  30  75 S9G16     29.91F WCI  30
6HR MIN TEMP:  32; 6HR MAX TEMP:  37;

NEWPORT*       LGT SNOW  32  28  83 SE12      29.94F WCI  23
6HR MIN TEMP:  28; 6HR MAX TEMP:  32;

BENNINGTON     CLOUDY    39  30  70 SW5       29.93R
6HR MIN TEMP:  37; 6HR MAX TEMP:  39;

SUTTON*          N/A     28 N/A N/A MISG        N/A
ISLAND POND*     N/A     28 N/A N/A E8          N/A  WCI  20
GALLUP MILLS*    N/A     28 N/A N/A MISG        N/A
UNION VILLAGE*   N/A     34 N/A N/A MISG        N/A
MT. MANSFIELD*   N/A     21 N/A N/A SE20G31     N/A  WCI   6

_____LAKE CHAMPLAIN_____


CITY           SKY/WX    TMP DP  RH WIND       PRES   REMARKS
BURTON ISLAND*   N/A     36  32  87 S14         N/A  WCI  27
COLCHESTER RF*   N/A     37  34  87 S25         N/A  WCI  26
DIAMOND ISL*     N/A     36  34  93 SE9         N/A  WCI  29

$$

NYZ007-026>031-035-052-083-087-181900-
_____NORTHERN NEW YORK_____


CITY           SKY/WX    TMP DP  RH WIND       PRES   REMARKS
SARANAC LAKE   CLOUDY    34  31  88 SW7       29.83F WCI  28
6HR MIN TEMP:  32; 6HR MAX TEMP:  34; 6HR PCP:  0.02;

MASSENA        CLOUDY    31  30  96 E3        29.90S FOG
6HR MIN TEMP:  28; 6HR MAX TEMP:  30;

OGDENSBURG*    CLOUDY    31  31  99 CALM      29.90  FOG
6HR MIN TEMP:  31; 6HR MAX TEMP:  33;

POTSDAM*       CLOUDY    34  34 100 W8        29.88S FOG     WCI  27
STARK FALLS*     N/A     34 N/A N/A SW7         N/A  WCI  28
WATERTOWN      CLOUDY    34  34 100 SW6       29.91F WCI  29
6HR MIN TEMP:  34; 6HR MAX TEMP:  37; 6HR PCP:  0.18;

FT DRUM        CLOUDY    34  32  93 W6        29.88S WCI  29
6HR MIN TEMP:  33; 6HR MAX TEMP:  37; 6HR PCP: TRACE;

ALBANY         DRZL/FOG  35  32  88 N3        29.97R VSB 1
6HR MIN TEMP:  33; 6HR MAX TEMP:  35; 6HR PCP:  0.01;

GLENS FALLS    CLOUDY    36  33  89 SE3       29.95F FOG
6HR MIN TEMP:  34; 6HR MAX TEMP:  36; 6HR PCP:  0.02;


$$
NHZ002-005-011-181900-
_____NEW HAMPSHIRE_____


CITY           SKY/WX    TMP DP  RH WIND       PRES   REMARKS
LEBANON        CLOUDY    35  29  78 CALM      29.97F
6HR MIN TEMP:  31; 6HR MAX TEMP:  35;

KEENE          CLOUDY    35  30  82 VRB3      29.97F
6HR MIN TEMP:  33; 6HR MAX TEMP:  35; 6HR PCP:  0.16;

MT WASHINGTON  SNOW      12  12 100 SE20        N/A  VSB 1/8 WCI  -6
6HR MIN TEMP:   9; 6HR MAX TEMP:  14; 6HR PCP:  0.13;

PLYMOUTH       LGT SNOW  31  28  87 CALM      30.01R
6HR MIN TEMP:  28; 6HR MAX TEMP:  31;

WHITEFIELD     LGT SNOW  31  24  75 E6        29.96R WCI  25
6HR MIN TEMP:  28; 6HR MAX TEMP:  32; 6HR PCP: TRACE;


$$

_____REGIONAL QUEBEC LOCATIONS_____


CITY           SKY/WX    TMP DP  RH WIND       PRES   REMARKS
MONTREAL       FRZ DRZL  25  23  93 N10       29.91F FOG     WCI  15
QUEBEC CITY    CLOUDY    21  12  68 E10G17    30.02F WCI  10
SHERBROOKE     CLOUDY    30  23  74 SE10      29.94F WCI  21

_____REGIONAL ONTARIO LOCATIONS_____


CITY           SKY/WX    TMP DP  RH WIND       PRES   REMARKS
OTTAWA         FRZ DRZL  28  27  93 CALM      29.89S FOG

______KEY______
VSB  - VISIBILITY IN MILES
WCI  - WIND CHILL INDEX
HX   - HEAT INDEX
$$
NNNN




USA.gov is the U.S. government's official web portal to all federal, state and local government web resources and services.